| time (UTC) | temp C | wind direction | speed KPH | gust KPH | rain 1hr cm | rain 24hr cm | rain mn cm | humidity % | barometer mb |
| 20260906021600 | 26 | 301 | 1.6 | 8.0 | 0.00 | 0.00 | 0.00 | 84 | 1012.4 |
| 20260906020104 | 27 | 0 | 0.0 | 3.2 | 0.00 | 0.00 | 0.00 | 81 | 1012.0 |
| 20260906014603 | 26 | 0 | 0.0 | 0.0 | 0.00 | 0.00 | 0.00 | 82 | 1011.4 |
| 20260906013058 | 26 | 0 | 0.0 | 0.0 | 0.00 | 0.00 | 0.00 | 82 | 1011.2 |
| 20260906011607 | 27 | 0 | 0.0 | 0.0 | 0.00 | 0.00 | 0.00 | 82 | 1011.5 |
| 20260906010057 | 27 | 0 | 0.0 | 0.0 | 0.00 | 0.00 | 0.00 | 79 | 1011.2 |
| 20260906004601 | 28 | 0 | 0.0 | 0.0 | 0.00 | 0.00 | 0.00 | 74 | 1011.3 |
| 20260906003113 | 28 | 0 | 0.0 | 1.6 | 0.00 | 0.00 | 0.00 | 72 | 1011.5 |
| 20260906001600 | 29 | 0 | 0.0 | 1.6 | 0.00 | 0.00 | 0.00 | 71 | 1011.7 |
| 20260906000057 | 30 | 0 | 0.0 | 0.0 | 0.00 | 0.00 | 0.00 | 70 | 1011.9 |
| 20260905234551 | 30 | 0 | 0.0 | 0.0 | 0.00 | 0.00 | 0.00 | 68 | 1012.1 |
| 20260905233114 | 31 | 0 | 0.0 | 0.0 | 0.00 | 0.00 | 0.00 | 66 | 1011.9 |
| 20260905231557 | 31 | 0 | 0.0 | 0.0 | 0.00 | 0.00 | 0.00 | 64 | 1011.9 |
| 20260905230059 | 32 | 0 | 0.0 | 0.0 | 0.00 | 0.00 | 0.00 | 63 | 1011.7 |
| 20260905224611 | 32 | 0 | 0.0 | 4.8 | 0.00 | 0.00 | 0.00 | 60 | 1011.7 |
| 20260905223100 | 33 | 319 | 1.6 | 12.9 | 0.00 | 0.00 | 0.00 | 57 | 1011.7 |
| 20260905221601 | 33 | 300 | 1.6 | 6.4 | 0.00 | 0.00 | 0.00 | 55 | 1011.8 |
| 20260905220056 | 33 | 310 | 4.8 | 17.7 | 0.00 | 0.00 | 0.00 | 57 | 1011.7 |
| 20260905214555 | 33 | 297 | 8.0 | 16.1 | 0.00 | 0.00 | 0.00 | 57 | 1011.7 |
| 20260905213101 | 33 | 256 | 3.2 | 12.9 | 0.00 | 0.00 | 0.00 | 55 | 1011.7 |
| 20260905211603 | 33 | 257 | 3.2 | 8.0 | 0.00 | 0.00 | 0.00 | 58 | 1011.7 |
| 20260905204602 | 33 | 290 | 4.8 | 12.9 | 0.00 | 0.00 | 0.00 | 58 | 1012.1 |
| 20260905203106 | 34 | 306 | 6.4 | 16.1 | 0.00 | 0.00 | 0.00 | 57 | 1012.0 |
| 20260905201607 | 33 | 0 | 4.8 | 14.5 | 0.00 | 0.00 | 0.00 | 54 | 1012.4 |
| 20260905200100 | 33 | 254 | 3.2 | 12.9 | 0.00 | 0.00 | 0.00 | 58 | 1012.6 |
| 20260905194604 | 33 | 304 | 6.4 | 12.9 | 0.00 | 0.00 | 0.00 | 56 | 1012.8 |
| 20260905193100 | 33 | 304 | 1.6 | 9.7 | 0.00 | 0.00 | 0.00 | 55 | 1013.0 |
| 20260905191557 | 33 | 296 | 1.6 | 8.0 | 0.00 | 0.00 | 0.00 | 59 | 1013.1 |
| 20260905190112 | 33 | 0 | 1.6 | 16.1 | 0.00 | 0.00 | 0.00 | 57 | 1013.4 |
| 20260905184621 | 33 | 304 | 4.8 | 9.7 | 0.00 | 0.00 | 0.00 | 57 | 1013.4 |
| 20260905183105 | 33 | 231 | 4.8 | 8.0 | 0.00 | 0.00 | 0.00 | 60 | 1013.7 |
| 20260905181555 | 33 | 325 | 1.6 | 6.4 | 0.00 | 0.00 | 0.00 | 61 | 1013.8 |
| 20260905180059 | 32 | 192 | 1.6 | 8.0 | 0.00 | 0.00 | 0.00 | 61 | 1014.0 |
| 20260905174559 | 31 | 72 | 1.6 | 11.3 | 0.00 | 0.00 | 0.00 | 61 | 1014.2 |
| 20260905173104 | 32 | 121 | 4.8 | 9.7 | 0.00 | 0.00 | 0.00 | 61 | 1014.4 |
| 20260905171553 | 32 | 302 | 1.6 | 8.0 | 0.00 | 0.00 | 0.00 | 65 | 1014.7 |
| 20260905164555 | 31 | 190 | 3.2 | 9.7 | 0.00 | 0.00 | 0.00 | 63 | 1015.0 |
| 20260905163053 | 31 | 0 | 1.6 | 16.1 | 0.00 | 0.00 | 0.00 | 64 | 1014.9 |
| 20260905161557 | 30 | 58 | 3.2 | 9.7 | 0.00 | 0.00 | 0.00 | 64 | 1014.9 |
| 20260905160058 | 30 | 45 | 1.6 | 11.3 | 0.00 | 0.00 | 0.00 | 66 | 1014.9 |
| 20260905154554 | 29 | 35 | 3.2 | 16.1 | 0.00 | 0.00 | 0.00 | 69 | 1015.2 |
| 20260905153054 | 28 | 61 | 4.8 | 14.5 | 0.00 | 0.00 | 0.00 | 67 | 1015.6 |
| 20260905151601 | 28 | 51 | 1.6 | 12.9 | 0.00 | 0.00 | 0.00 | 69 | 1015.6 |
| 20260905150055 | 28 | 76 | 4.8 | 16.1 | 0.00 | 0.00 | 0.00 | 69 | 1015.6 |
| 20260905144555 | 27 | 29 | 8.0 | 19.3 | 0.00 | 0.00 | 0.00 | 72 | 1015.7 |
| 20260905143052 | 27 | 9 | 4.8 | 12.9 | 0.00 | 0.00 | 0.00 | 74 | 1015.7 |
| 20260905141619 | 27 | 20 | 3.2 | 12.9 | 0.00 | 0.00 | 0.00 | 76 | 1015.7 |
| 20260905140056 | 28 | 38 | 1.6 | 16.1 | 0.00 | 0.00 | 0.00 | 75 | 1015.7 |
| 20260905134553 | 27 | 53 | 3.2 | 9.7 | 0.00 | 0.00 | 0.00 | 80 | 1015.2 |
| 20260905133055 | 27 | 352 | 1.6 | 4.8 | 0.00 | 0.00 | 0.00 | 85 | 1015.3 |
| 20260905131605 | 26 | 0 | 0.0 | 3.2 | 0.00 | 0.00 | 0.00 | 90 | 1015.1 |
| 20260905130050 | 25 | 159 | 0.0 | 3.2 | 0.00 | 0.00 | 0.00 | 96 | 1015.3 |
| 20260905124558 | 23 | 0 | 1.6 | 6.4 | 0.00 | 0.00 | 0.00 | 98 | 1015.5 |
| 20260905123100 | 22 | 0 | 0.0 | 0.0 | 0.00 | 0.00 | 0.00 | 98 | 1015.3 |
| 20260905121552 | 22 | 0 | 0.0 | 0.0 | 0.00 | 0.00 | 0.00 | 97 | 1014.9 |
| 20260905114603 | 21 | 0 | 0.0 | 0.0 | 0.00 | 0.00 | 0.00 | 97 | 1014.7 |
| 20260905113101 | 21 | 0 | 0.0 | 0.0 | 0.00 | 0.00 | 0.00 | 97 | 1014.6 |
| 20260905111557 | 21 | 0 | 0.0 | 0.0 | 0.00 | 0.00 | 0.00 | 97 | 1014.5 |
| 20260905110055 | 21 | 0 | 0.0 | 0.0 | 0.00 | 0.00 | 0.00 | 97 | 1014.3 |
| 20260905104555 | 21 | 0 | 0.0 | 0.0 | 0.00 | 0.00 | 0.00 | 97 | 1014.2 |
| 20260905103056 | 21 | 0 | 0.0 | 0.0 | 0.00 | 0.00 | 0.00 | 97 | 1014.0 |
| 20260905101613 | 22 | 0 | 0.0 | 0.0 | 0.00 | 0.00 | 0.00 | 97 | 1014.1 |
| 20260905100055 | 21 | 0 | 0.0 | 0.0 | 0.00 | 0.00 | 0.00 | 97 | 1014.0 |
| 20260905094555 | 22 | 0 | 0.0 | 0.0 | 0.00 | 0.00 | 0.00 | 96 | 1013.8 |
| 20260905093050 | 22 | 0 | 0.0 | 0.0 | 0.00 | 0.00 | 0.00 | 97 | 1013.6 |
| 20260905091609 | 22 | 0 | 0.0 | 0.0 | 0.00 | 0.00 | 0.00 | 97 | 1013.6 |
| 20260905090055 | 22 | 0 | 0.0 | 0.0 | 0.00 | 0.00 | 0.00 | 97 | 1013.6 |
| 20260905084617 | 22 | 0 | 0.0 | 0.0 | 0.00 | 0.00 | 0.00 | 96 | 1013.5 |
| 20260905083055 | 22 | 0 | 0.0 | 0.0 | 0.00 | 0.00 | 0.00 | 97 | 1013.5 |
| 20260905081559 | 22 | 0 | 0.0 | 0.0 | 0.00 | 0.00 | 0.00 | 96 | 1013.5 |
| 20260905080055 | 22 | 0 | 0.0 | 0.0 | 0.00 | 0.00 | 0.00 | 96 | 1013.6 |
| 20260905074556 | 22 | 0 | 0.0 | 0.0 | 0.00 | 0.00 | 0.00 | 96 | 1013.7 |
| 20260905073058 | 22 | 0 | 0.0 | 0.0 | 0.00 | 0.00 | 0.00 | 96 | 1013.8 |
| 20260905071604 | 22 | 0 | 0.0 | 0.0 | 0.00 | 0.00 | 0.00 | 96 | 1013.9 |
| 20260905064554 | 22 | 0 | 0.0 | 0.0 | 0.00 | 0.00 | 0.00 | 96 | 1014.3 |
| 20260905063058 | 22 | 0 | 0.0 | 0.0 | 0.00 | 0.00 | 0.00 | 96 | 1014.4 |
| 20260905061616 | 23 | 0 | 0.0 | 0.0 | 0.00 | 0.00 | 0.00 | 96 | 1014.7 |
| 20260905060056 | 23 | 0 | 0.0 | 0.0 | 0.00 | 0.00 | 0.00 | 96 | 1014.7 |
| 20260905054604 | 23 | 0 | 0.0 | 0.0 | 0.00 | 0.00 | 0.00 | 95 | 1014.8 |
| 20260905053110 | 23 | 0 | 0.0 | 0.0 | 0.00 | 0.00 | 0.00 | 95 | 1014.9 |
| 20260905051602 | 23 | 0 | 0.0 | 1.6 | 0.00 | 0.00 | 0.00 | 95 | 1014.8 |
| 20260905050055 | 23 | 0 | 0.0 | 3.2 | 0.00 | 0.00 | 0.00 | 95 | 1014.7 |
| 20260905044601 | 23 | 0 | 0.0 | 1.6 | 0.00 | 0.00 | 0.00 | 95 | 1014.6 |
| 20260905043059 | 23 | 0 | 0.0 | 3.2 | 0.00 | 0.00 | 0.00 | 95 | 1014.7 |
| 20260905041601 | 23 | 159 | 0.0 | 1.6 | 0.00 | 0.00 | 0.00 | 94 | 1014.8 |
| 20260905040056 | 23 | 0 | 0.0 | 0.0 | 0.00 | 0.00 | 0.00 | 94 | 1014.8 |
| 20260905034601 | 23 | 0 | 0.0 | 0.0 | 0.00 | 0.00 | 0.00 | 94 | 1014.8 |
| 20260905033100 | 24 | 0 | 0.0 | 1.6 | 0.00 | 0.00 | 0.00 | 93 | 1014.9 |
| 20260905031602 | 24 | 0 | 0.0 | 1.6 | 0.00 | 0.00 | 0.00 | 92 | 1014.9 |
| 20260905030107 | 25 | 0 | 0.0 | 1.6 | 0.00 | 0.00 | 0.00 | 92 | 1014.9 |
| 20260905024632 | 25 | 0 | 0.0 | 0.0 | 0.00 | 0.00 | 0.00 | 92 | 1014.9 |
| 20260905023059 | 25 | 0 | 0.0 | 1.6 | 0.00 | 0.00 | 0.00 | 91 | 1014.9 |